Hourly Data Report for October 03, 2017

All times are specified in Local Standard Time (LST). Add 1 hour to adjust for Daylight Saving Time where and when it is observed.

SACHS HARBOUR CLIMATE
NORTHWEST TERRITORIES

71°59'33.000" N
125°15'15.000" W
87.50 m
2503648
71467
WSY

Download Data

Hourly Data (October 2017)
Hourly Data Report for October 3, 2017
Temp Definition
°C
Dew Point Temp Definition
°C
Rel Hum Definition
%
Wind Dir Definition
10's deg

Wind Spd Definition
km/h
Visibility Definition
km
Stn Press Definition
kPa
Hmdx Definition


Wind Chill Definition


Weather Definition


TIME
00:00 -9.8 -10.2 96 3 21   101.05   -18 LegendNANA
01:00 -10.6 -11.2 95 3 17   101.06   -18 LegendNANA
02:00 -10.2 -10.8 95 5 14   101.00   -17 LegendNANA
03:00 -9.7 -10.3 95 5 12   101.04   -16 LegendNANA
04:00 -10.4 -11.1 95 3 16   101.02   -17 LegendNANA
05:00 -12.2 -12.9 94 4 11   101.02   -18 LegendNANA
06:00 -13.1 -14.0 93 5 6   101.02   -17 LegendNANA
07:00 -13.4 -14.2 93 5 4   101.01   -16 LegendNANA
08:00 -13.2 -14.1 93 3 3   101.04   -15 LegendNANA
09:00 -14.2 -15.2 92 2 3   101.01   -16 LegendNANA
10:00 -14.3 -15.3 92 3 19   100.99   -23 LegendNANA
11:00 -13.8 -14.8 92 4 33   100.99   -25 LegendNANA
12:00 -13.6 -14.5 93 3 25   101.07   -23 LegendNANA
13:00 -12.9 -13.8 93 3 25   101.10   -22 LegendNANA
14:00 -12.9 -13.7 93 3 25   101.10   -22 LegendNANA
15:00 -12.5 -13.4 93 3 23   101.15   -22 LegendNANA
16:00 -12.6 -13.5 93 2 21   101.13   -21 LegendNANA
17:00 -12.4 -13.4 93 2 34   101.10   -23 LegendNANA
18:00 -12.8 -13.8 93 3 29   101.13   -23 LegendNANA
19:00 -13.5 -14.5 93 3 24   101.16   -23 LegendNANA
20:00 -13.9 -14.9 92 5 15   101.20   -22 LegendNANA
21:00 -14.2 -15.2 92 9 13   101.21   -21 LegendNANA
22:00 -14.1 -15.1 92 6 18   101.22   -23 LegendNANA
23:00 -13.7 -14.6 92 6 19   101.22   -22 LegendNANA

Notes on Data Quality.

Legend

  • E = Estimated
  • M = Missing
  • NA = Not Available
  • ‡ = Partner data that is not subject to review by the National Climate Archives
Date modified: